TimeMST,TemperatureF,Dew PointF,Humidity,Sea Level PressureIn,VisibilityMPH,Wind Direction,Wind SpeedMPH,Gust SpeedMPH,PrecipitationIn,Events,Conditions,WindDirDegrees,DateUTC
12:52 AM,39.0,21.0,49,29.80,10.0,SSW,8.1,-,N/A,,Clear,210,2013-03-07 07:52:00
1:52 AM,35.1,21.9,59,29.83,10.0,SW,9.2,-,N/A,,Clear,230,2013-03-07 08:52:00
2:52 AM,30.9,21.0,67,29.84,10.0,Calm,Calm,-,N/A,,Clear,0,2013-03-07 09:52:00
3:52 AM,30.0,21.0,69,29.82,10.0,NNW,6.9,-,N/A,,Clear,330,2013-03-07 10:52:00
4:52 AM,33.1,23.0,66,29.84,10.0,WNW,9.2,-,N/A,,Clear,290,2013-03-07 11:52:00
5:52 AM,28.0,21.0,75,29.88,10.0,NNE,6.9,-,N/A,,Clear,20,2013-03-07 12:52:00
6:52 AM,32.0,26.1,79,29.89,10.0,NNW,12.7,-,N/A,,Clear,340,2013-03-07 13:52:00
7:52 AM,33.1,26.1,75,29.91,10.0,NNE,5.8,-,N/A,,Clear,30,2013-03-07 14:52:00
8:52 AM,39.0,28.0,65,29.91,10.0,North,12.7,-,N/A,,Clear,10,2013-03-07 15:52:00
9:52 AM,42.1,28.0,58,29.90,10.0,NNE,9.2,-,N/A,,Clear,20,2013-03-07 16:52:00
10:44 AM,44.6,28.4,53,29.93,1.5,North,8.1,-,N/A,,Haze,350,2013-03-07 17:44:00
10:52 AM,45.0,28.0,52,29.88,1.5,North,4.6,-,N/A,,Haze,10,2013-03-07 17:52:00
10:57 AM,46.4,28.4,50,29.92,10.0,NNW,5.8,-,N/A,,Clear,340,2013-03-07 17:57:00
11:52 AM,50.0,26.1,39,29.84,10.0,Variable,5.8,-,N/A,,Clear,0,2013-03-07 18:52:00
12:52 PM,53.1,23.0,31,29.81,10.0,Calm,Calm,-,N/A,,Clear,0,2013-03-07 19:52:00
1:52 PM,55.9,19.9,25,29.79,10.0,SW,17.3,20.7,N/A,,Clear,230,2013-03-07 20:52:00
2:52 PM,55.9,19.0,24,29.78,10.0,SW,15.0,23.0,N/A,,Clear,220,2013-03-07 21:52:00
3:52 PM,55.0,18.0,23,29.79,10.0,SSW,9.2,-,N/A,,Clear,200,2013-03-07 22:52:00
4:52 PM,55.0,18.0,23,29.78,10.0,SW,11.5,-,N/A,,Scattered Clouds,230,2013-03-07 23:52:00
5:52 PM,52.0,19.0,27,29.81,10.0,SSW,12.7,-,N/A,,Overcast,200,2013-03-08 00:52:00
6:25 PM,50.0,19.4,30,29.84,0.5,SSW,6.9,-,N/A,,Haze,210,2013-03-08 01:25:00
6:44 PM,50.0,19.4,30,29.84,2.0,South,4.6,-,N/A,,Haze,170,2013-03-08 01:44:00
6:49 PM,48.2,19.4,32,29.84,10.0,SSE,4.6,-,N/A,,Mostly Cloudy,160,2013-03-08 01:49:00
6:52 PM,48.0,19.9,33,29.82,10.0,SSE,5.8,-,N/A,,Mostly Cloudy,150,2013-03-08 01:52:00
7:52 PM,46.9,21.9,37,29.83,10.0,South,5.8,-,N/A,,Mostly Cloudy,170,2013-03-08 02:52:00
8:52 PM,46.0,23.0,40,29.82,10.0,South,6.9,-,N/A,,Overcast,190,2013-03-08 03:52:00
9:52 PM,44.1,24.1,45,29.83,10.0,Calm,Calm,-,N/A,,Overcast,0,2013-03-08 04:52:00
10:48 PM,39.2,26.6,61,29.87,1.8,WSW,5.8,-,N/A,,Haze,250,2013-03-08 05:48:00
10:52 PM,39.9,26.1,58,29.83,0.2,WSW,6.9,-,N/A,,Haze,240,2013-03-08 05:52:00
11:02 PM,39.2,26.6,61,29.86,4.0,West,5.8,-,N/A,,Haze,260,2013-03-08 06:02:00
11:52 PM,39.9,27.0,60,29.81,10.0,WSW,4.6,-,N/A,,Overcast,240,2013-03-08 06:52:00